Location: Newark
(41.6500°N, 71.4833°W)
Time: 11:35:30
(UTC+00:00)

Courier 1B - Pass Details

Date: 29 January 2020
Orbit: 962 x 1209 km, 28.3° (Epoch: 20 February)

Event Time Altitude Azimuth Distance (km) Brightness Sun altitude
Rises 08:54:24 0° 253° (WSW) 3,846 - -35.0°
Reaches altitude 10° 08:57:32 10° 241° (WSW) 2,932 - -34.4°
Maximum altitude 09:03:20 26° 188° (S) 2,041 - -33.3°
Exits shadow 09:04:21 26° 175° (S) 2,086 9.1 -33.1°
Drops below altitude 10° 09:09:24 10° 135° (SE) 3,070 10.5 -32.2°
Sets 09:12:46 0° 123° (ESE) 4,061 11.5 -31.5°
